Regional Weather Roundup
Issued by NWS Little Rock, AR

Home | Current Version | Previous Version | Text Only | Print | Product List | Glossary On
Versions: 1 2 3 4 5 6 7 8 9 10 11 12 13 14 15 16 17 18 19 20 21 22 23 24 25 26 27 28 29 30 31 32 33 34 35 36 37 38 39 40 41 42 43 44 45 46 47 48 49 50
000
ASUS44 KLZK 251005
RWRLZK

WEATHER ROUNDUP FOR ARKANSAS
NATIONAL WEATHER SERVICE LITTLE ROCK AR
500 AM CDT MON JUL 25 2016

NOTE: "FAIR" INDICATES FEW OR NO CLOUDS BELOW 12,000 FEET WITH NO
SIGNIFICANT WEATHER AND/OR OBSTRUCTIONS TO VISIBILITY.

ARZ001-003-010-029-251100-
NORTHWEST ARKANSAS

CITY           SKY/WX    TMP DP  RH WIND       PRES   REMARKS
FAYETTEVILLE   CLEAR     72  71  97 CALM      30.02R
FORT SMITH     MOCLDY    77  72  84 E3        29.98R
HARRISON       CLEAR     73  71  93 CALM      30.01S
BENTONVILLE    PTCLDY    75  66  73 CALM      30.02S
ROGERS         CLEAR     76  70  82 S3        30.02S
SILOAM SPGS    PTCLDY    73  64  73 CALM      30.03R
HIGHFILL       MOCLDY    76  71  85 SW5       30.02R
$$

ARZ004-005-016-251100-
NORTH CENTRAL ARKANSAS

CITY           SKY/WX    TMP DP  RH WIND       PRES   REMARKS
BATESVILLE     CLEAR     73  72  94 CALM      29.97S
FLIPPIN        CLEAR     73  70  88 S3        29.96S
MTN HOME       CLEAR     74  73  97 CALM      29.98S
$$

ARZ040-041-251100-
WEST CENTRAL ARKANSAS

CITY           SKY/WX    TMP DP  RH WIND       PRES   REMARKS
MENA           CLEAR     77  73  88 SW3       30.02R
MOUNT IDA      CLOUDY    72  71  97 CALM      29.99R
$$

ARZ009-017-025-026-028-251100-
NORTHEAST ARKANSAS

CITY           SKY/WX    TMP DP  RH WIND       PRES   REMARKS
CORNING          N/A     77  77 100 SE3       29.97S
JONESBORO      CLEAR     76  74  93 CALM      29.97S
NEWPORT        CLEAR     76  76 100 SE6       29.97F
WALNUT RIDGE   PTCLDY    77  73  88 S3        29.96R
BLYTHEVILLE    CLEAR     78  76  93 SE3       29.98F
$$

ARZ022-023-033-042-044-251100-
CENTRAL ARKANSAS

CITY           SKY/WX    TMP DP  RH WIND       PRES   REMARKS
LITTLE ROCK    CLOUDY    77  71  82 S3        29.98R
N LITTLE ROCK    N/A     74  70  87 CALM      29.95R
JACKSONVILLE   CLOUDY    75  72  90 S2        29.97R
SEARCY         CLOUDY    73  72  96 S3        29.98S
HOT SPRINGS    CLOUDY    74  72  93 CALM      30.00R
RUSSELLVILLE   CLEAR     72  70  93 CALM      29.97S
$$

ARZ036-251100-
EAST ARKANSAS

CITY           SKY/WX    TMP DP  RH WIND       PRES   REMARKS
WEST MEMPHIS   CLEAR     77  76  96 CALM      29.97R
$$

ARZ050-053-066-070-073-251100-
SOUTHWEST ARKANSAS

CITY           SKY/WX    TMP DP  RH WIND       PRES   REMARKS
CAMDEN         CLEAR     72  68  88 S3        29.98S
TEXARKANA      CLEAR     72  70  93 CALM      29.98R
EL DORADO      CLEAR     72  71  97 CALM      29.99R
DE QUEEN       FOG       74  74 100 N3        29.97R VSB 1/4
$$

ARZ056-057-069-251100-
SOUTHEAST ARKANSAS

CITY           SKY/WX    TMP DP  RH WIND       PRES   REMARKS
PINE BLUFF     MOCLDY    76  74  93 SW3       29.98R
STUTTGART      PTCLDY    77  72  83 CALM      29.99R
MONTICELLO     CLEAR     75  72  90 CALM      29.98S

$$





USA.gov is the U.S. government's official web portal to all federal, state and local government web resources and services.